Volver al catálogo

STARLINK-31083

ActivoComunicacionesVLEO
NORAD 58670·PAYLOAD·🇺🇸 United States

Lanzado Dec 29, 2023 desde Cape Canaveral Space Force Station

Loading…

Próximos Pases (próximas 24 horas)

TLE

ActualizadoSource: CelesTrak SupGP

Época: Sep 14, 2026, 22:24 UTC

1 58670C 23211D   26257.93381944  .00009469  00000+0  34308-3 0  2573
2 58670  43.0027  96.1823 0001602 272.7081 356.3570 15.27564575    16

Sigue STARLINK-31083 en tiempo real con AllMySat

Download on the App Store